Time,TemperatureF,DewpointF,PressureIn,WindDirection,WindDirectionDegrees,WindSpeedMPH,WindSpeedGustMPH,Humidity,HourlyPrecipIn,Conditions,Clouds,dailyrainin,SoftwareType,DateUTC
2013-04-11 19:50:00,33.0,31.5,29.90,ESE,111,3.0,35.0,94,0.00,,,0.09,Wunderground v.1.15,2013-04-11 23:50:00,
2013-04-11 19:55:00,33.0,31.5,29.91,SE,126,5.0,35.0,94,0.00,,,0.09,Wunderground v.1.15,2013-04-11 23:55:00,
2013-04-11 20:00:00,32.8,31.3,29.91,ESE,111,5.0,5.0,94,0.00,,,0.09,Wunderground v.1.15,2013-04-12 00:00:00,
2013-04-11 20:05:00,32.7,31.2,29.91,ESE,113,5.0,35.0,94,0.00,,,0.09,Wunderground v.1.15,2013-04-12 00:05:00,
2013-04-11 20:15:00,32.8,31.3,29.91,ESE,109,3.0,35.0,94,0.00,,,0.09,Wunderground v.1.15,2013-04-12 00:15:00,
2013-04-11 20:20:00,32.8,31.3,29.90,ESE,113,4.0,35.0,94,0.00,,,0.09,Wunderground v.1.15,2013-04-12 00:20:00,
2013-04-11 20:30:00,32.6,30.8,29.91,ESE,106,5.0,5.0,93,0.00,,,0.09,Wunderground v.1.15,2013-04-12 00:30:00,
2013-04-11 20:40:00,32.6,30.8,29.91,ESE,109,3.0,35.0,93,0.00,,,0.09,Wunderground v.1.15,2013-04-12 00:40:00,
2013-04-11 20:50:00,32.4,30.6,29.91,East,93,6.0,35.0,93,0.00,,,0.09,Wunderground v.1.15,2013-04-12 00:50:00,
2013-04-11 21:00:00,32.3,30.2,29.91,ESE,119,6.0,6.0,92,0.00,,,0.09,Wunderground v.1.15,2013-04-12 01:00:00,
2013-04-11 21:10:00,32.3,30.5,29.92,ESE,120,3.0,35.0,93,0.00,,,0.09,Wunderground v.1.15,2013-04-12 01:10:00,
2013-04-11 21:20:00,32.0,30.2,29.92,ESE,115,5.0,35.0,93,0.00,,,0.09,Wunderground v.1.15,2013-04-12 01:20:00,
2013-04-11 21:30:00,32.1,30.6,29.92,ESE,107,4.0,4.0,94,0.00,,,0.09,Wunderground v.1.15,2013-04-12 01:30:00,
2013-04-11 21:40:00,32.1,30.6,29.92,ESE,106,4.0,4.0,94,0.00,,,0.09,Wunderground v.1.15,2013-04-12 01:40:00,
2013-04-11 21:45:00,32.0,30.5,29.92,ESE,103,3.0,5.0,94,0.00,,,0.09,Wunderground v.1.15,2013-04-12 01:45:00,
2013-04-11 21:55:00,31.9,30.1,29.92,East,97,4.0,35.0,93,0.00,,,0.09,Wunderground v.1.15,2013-04-12 01:55:00,
2013-04-11 22:05:00,31.8,29.2,29.92,ESE,107,4.0,10.0,90,0.00,,,0.09,Wunderground v.1.15,2013-04-12 02:05:00,
2013-04-11 22:15:00,31.7,28.8,29.92,ESE,115,6.0,35.0,89,0.00,,,0.10,Wunderground v.1.15,2013-04-12 02:15:00,
2013-04-11 22:25:00,31.5,28.6,29.91,ESE,117,5.0,35.0,89,0.06,,,0.11,Wunderground v.1.15,2013-04-12 02:25:00,
2013-04-11 22:35:00,31.1,28.2,29.90,ESE,113,5.0,35.0,89,0.04,,,0.11,Wunderground v.1.15,2013-04-12 02:35:00,
2013-04-11 22:45:00,31.0,28.4,29.90,ESE,104,3.0,35.0,90,0.00,,,0.11,Wunderground v.1.15,2013-04-12 02:45:00,
2013-04-11 22:55:00,30.8,28.2,29.91,SE,133,5.0,35.0,90,0.00,,,0.11,Wunderground v.1.15,2013-04-12 02:55:00,
2013-04-11 23:05:00,30.6,28.0,29.90,SE,140,4.0,35.0,90,0.00,,,0.11,Wunderground v.1.15,2013-04-12 03:05:00,
2013-04-11 23:10:00,30.5,27.9,29.90,ESE,107,4.0,35.0,90,0.00,,,0.11,Wunderground v.1.15,2013-04-12 03:10:00,
2013-04-11 23:20:00,30.5,27.9,29.89,ESE,109,6.0,35.0,90,0.00,,,0.11,Wunderground v.1.15,2013-04-12 03:20:00,
2013-04-11 23:30:00,30.3,27.7,29.89,ESE,113,7.0,35.0,90,0.00,,,0.11,Wunderground v.1.15,2013-04-12 03:30:00,
2013-04-11 23:40:00,30.2,27.6,29.89,ESE,123,5.0,35.0,90,0.00,,,0.11,Wunderground v.1.15,2013-04-12 03:40:00,
2013-04-11 23:50:00,30.2,27.6,29.88,East,94,5.0,35.0,90,0.00,,,0.11,Wunderground v.1.15,2013-04-12 03:50:00,